Weather History for Ontario, OR

Change the Weather History Date:

Wednesday, February 6, 2013

  Actual Average Record
Temperature  
Mean Temperature 33 °F 31 °F  
Max Temperature 37 °F 40 °F 58 °F (1963)
Min Temperature 28 °F 22 °F -23 °F (1989)
Degree Days  
Heating Degree Days 32 34  
Month to date heating degree days 195 209  
Since 1 July heating degree days 3910 3952  
Cooling Degree Days 0 0  
Month to date cooling degree days 0 0  
Year to date cooling degree days 0 0  
Moisture  
Dew Point 28 °F    
Average Humidity 85    
Maximum Humidity 100    
Minimum Humidity 70    
Precipitation  
Precipitation 0.00 in 0.03 in 0.35 in (1951)
Month to date precipitation 0.00 0.17  
Year to date precipitation 0.54 1.35  
Sea Level Pressure  
Sea Level Pressure 30.20 in    
Wind  
Wind Speed 4 mph (SW)    
Max Wind Speed 8 mph    
Max Gust Speed 9 mph    
Visibility 8 miles    
Events      
T = Trace of Precipitation, MM = Missing Value Source: NWS Daily Summary

Daily Weather History Graph

Daily Weather History Graph

Search for Another Location

Airport:

Trip Planner

Search our weather history database for the weather conditions in past years. The results will help you decide how hot, cold, wet, or windy it might be!

Date:

Astronomy

Feb. 06, 2013 Rise Set
Actual Time 7:59 AM MST 6:05 PM MST
Civil Twilight 7:28 AM MST 6:36 PM MST
Nautical Twilight 6:54 AM MST 7:10 PM MST
Astronomical Twilight 6:21 AM MST 7:43 PM MST
Moon 4:51 AM MST (2/6) 2:25 PM MST (2/6)
Length of Visible Light 11h 07m
Length of Day
10h 06m
Waning Crescent, 16% of the Moon is Illuminated
Feb 6
Waning Crescent
Feb 10
New
Feb 17
First Quarter
Feb 25
Full
Mar 4
Last Quarter

Hourly Weather History & Observations

Time (MST) Temp. Windchill Dew Point Humidity Pressure Visibility Wind Dir Wind Speed Gust Speed Precip Events Conditions
12:53 AM 33.1 °F 27.7 °F 30.0 °F 89% 30.14 in 9.0 mi West 5.8 mph - N/A   Overcast
1:53 AM 32.0 °F 27.5 °F 28.9 °F 88% 30.14 in 9.0 mi WSW 4.6 mph - N/A   Overcast
2:06 AM 32.0 °F 27.5 °F 30.2 °F 93% 30.09 in 9.0 mi WSW 4.6 mph - N/A   Overcast
2:53 AM 32.0 °F 27.5 °F 30.0 °F 92% 30.17 in 7.0 mi WSW 4.6 mph - N/A   Overcast
3:53 AM 32.0 °F 26.4 °F 30.0 °F 92% 30.16 in 7.0 mi WSW 5.8 mph - N/A   Overcast
4:53 AM 32.0 °F 26.4 °F 30.0 °F 92% 30.18 in 6.0 mi WSW 5.8 mph - N/A   Overcast
6:13 AM 30.2 °F 26.7 °F 28.4 °F 93% 30.14 in 4.0 mi SSW 3.5 mph - N/A   Overcast
6:53 AM 30.9 °F 27.5 °F 28.9 °F 92% 30.20 in 5.0 mi South 3.5 mph - N/A   Overcast
7:53 AM 30.9 °F 26.2 °F 28.9 °F 92% 30.22 in 6.0 mi SSE 4.6 mph - N/A   Overcast
8:39 AM 30.2 °F 26.7 °F 28.4 °F 93% 30.18 in 2.0 mi SSE 3.5 mph - N/A   Overcast
8:53 AM 30.9 °F 27.5 °F 28.9 °F 92% 30.25 in 2.0 mi SSE 3.5 mph - N/A   Overcast
9:03 AM 30.2 °F - 28.4 °F 93% 30.19 in 1.8 mi Calm Calm - N/A   Overcast
9:53 AM 30.9 °F - 30.0 °F 96% 30.26 in 4.0 mi Calm Calm - N/A   Overcast
10:53 AM 32.0 °F 27.5 °F 28.9 °F 88% 30.27 in 10.0 mi South 4.6 mph - N/A   Overcast
11:12 AM 32.0 °F 28.7 °F 28.4 °F 87% 30.21 in 10.0 mi SSE 3.5 mph - N/A   Overcast
11:53 AM 33.1 °F 28.7 °F 28.9 °F 85% 30.28 in 10.0 mi South 4.6 mph - N/A   Overcast
12:04 PM 33.8 °F 30.8 °F 28.4 °F 81% 30.21 in 10.0 mi ESE 3.5 mph - N/A   Overcast
12:43 PM 33.8 °F - 28.4 °F 81% 30.21 in 10.0 mi Calm Calm - N/A   Overcast
12:53 PM 33.1 °F - 28.0 °F 82% 30.27 in 10.0 mi Calm Calm - N/A   Overcast
1:53 PM 35.1 °F - 28.9 °F 78% 30.25 in 10.0 mi Calm Calm - N/A   Overcast
2:53 PM 37.0 °F 34.5 °F 30.0 °F 76% 30.23 in 10.0 mi SE 3.5 mph - N/A   Overcast
3:48 PM 37.4 °F 33.8 °F 28.4 °F 70% 30.18 in 10.0 mi WNW 4.6 mph - N/A   Overcast
3:53 PM 37.0 °F 34.5 °F 28.9 °F 73% 30.24 in 10.0 mi WNW 3.5 mph - N/A   Overcast
4:45 PM 37.4 °F 32.1 °F 28.4 °F 70% 30.16 in 10.0 mi NNE 6.9 mph - N/A   Scattered Clouds
4:53 PM 37.0 °F 33.3 °F 28.9 °F 73% 30.22 in 10.0 mi North 4.6 mph - N/A   Clear
5:53 PM 34.0 °F - 28.0 °F 79% 30.22 in 10.0 mi Calm Calm - N/A   Clear
6:53 PM 30.0 °F 23.2 °F 26.1 °F 85% 30.22 in 10.0 mi NNW 6.9 mph - N/A   Clear
7:53 PM 28.0 °F 24.2 °F 25.0 °F 88% 30.21 in 10.0 mi NNW 3.5 mph - N/A   Clear
8:53 PM 28.0 °F - 25.0 °F 88% 30.20 in 10.0 mi Calm Calm - N/A   Clear
9:53 PM 28.9 °F 23.9 °F 25.0 °F 85% 30.19 in 10.0 mi WNW 4.6 mph - N/A   Clear
10:53 PM 28.0 °F 22.8 °F 25.0 °F 88% 30.18 in 10.0 mi West 4.6 mph - N/A   Clear
11:53 PM 28.9 °F 25.2 °F 26.1 °F 89% 30.17 in 9.0 mi West 3.5 mph - N/A   Clear